User: anonymous   Login
Location: Ceske Budejovice
(48.9830°N, 14.4670°E)
Time: 20:13:04
(UTC+02:00)
Language:

VELOX 1 - Orbit

View from above orbital plane
View from above orbital plane
View from above satellite
View from above satellite

Ground track
Ground track

The orbit data is extracted from the following two-line orbital elements,

1 40057U 14034E   19196.35647327  .00000200  00000-0  35567-4 0  9993
2 40057  98.2379 320.0224 0011941 143.8656 216.3363 14.77676399271708
Epoch (UTC): 15 July 2019 08:33:19
Eccentricity: 0.0011941
inclination: 98.2379°
perigee height: 628 km
apogee height: 645 km
right ascension of ascending node: 320.0224°
argument of perigee: 143.8656°
revolutions per day: 14.77676399
mean anomaly at epoch: 216.3363°
orbit number at epoch: 27170

The dashed part of the orbit path shows where the satellite is in the earth's shadow,  

DLR